Stations météo

réclame
Mon MeteoGroup
Stornoway, Grande-Bretagne (3026): Température de l'air & dewpoint: 16.03.2019 06:00:00 - 22.03.2019 06:00:00 (GMT)Stornoway, Grande-Bretagne (3026): Température de l'air -20cm & Température de l'air -100cm: 16.03.2019 06:00:00 - 22.03.2019 06:00:00 (GMT)Stornoway, Grande-Bretagne (3026): Vitesse du vent & gusts: 16.03.2019 06:00:00 - 22.03.2019 06:00:00 (GMT)Stornoway, Grande-Bretagne (3026): Direction du vent: 16.03.2019 06:00:00 - 22.03.2019 06:00:00 (GMT)Stornoway, Grande-Bretagne (3026): reduced air pressure: 16.03.2019 06:00:00 - 22.03.2019 06:00:00 (GMT)Stornoway, Grande-Bretagne (3026): visibility: 16.03.2019 06:00:00 - 22.03.2019 06:00:00 (GMT)Stornoway, Grande-Bretagne (3026): Ensoleillement: 16.03.2019 06:00:00 - 22.03.2019 06:00:00 (GMT)Stornoway, Grande-Bretagne (3026): Quantités de précipitations: 16.03.2019 06:00:00 - 22.03.2019 06:00:00 (GMT)
Date & Time tt [°C] td [°C] tt -20cm [°C] tt -100cm [°C] ff [km/h] ff [knt] fx [km/h] fx [knt] dd ppp [hPa] vv [km] sd [min] rr [mm]
22.03.2019 06:00:00 10,0 8,0 - - 59 32 87 47 SSW 1006,4 13 0 0,0
22.03.2019 05:00:00 10,2 7,7 - - 52 28 85 46 SSW 1007,8 18 0 0,0
22.03.2019 04:00:00 10,0 7,6 - - 55 30 87 47 S 1008,9 17 0 0,0
22.03.2019 03:00:00 9,8 7,7 - - 61 33 83 45 SSW 1009,7 13 0 0,0
22.03.2019 02:00:00 10,1 7,7 - - 57 31 80 43 SSW 1011,2 14 0 0,0
22.03.2019 01:00:00 9,8 7,9 - - 54 29 78 42 S 1013,2 15 0 0,2
22.03.2019 00:00:00 9,8 8,8 - - 42 23 68 37 SSW 1015,6 19 - 0,0
21.03.2019 23:00:00 9,2 8,8 - - 34 18 52 28 S 1016,9 12 0 0,4
21.03.2019 22:00:00 9,2 8,8 - - 35 19 55 30 S 1018,2 10 0 0,2
21.03.2019 21:00:00 9,1 8,9 - - 29 16 - - S 1019,7 18 0 0,6
21.03.2019 20:00:00 8,1 7,6 - - 16 9 - - S 1021,2 3,1 0 0,0
21.03.2019 19:00:00 8,2 6,3 - - 21 11 - - SSE 1022,0 75 0 0,0
21.03.2019 18:00:00 8,4 6,2 - - 16 9 - - SSE 1023,5 75 0 0,0
21.03.2019 17:00:00 8,8 6,1 - - 18 10 - - S 1024,3 75 54 0,0
21.03.2019 16:00:00 8,9 6,9 - - 24 13 - - S 1025,3 75 6 0,0
21.03.2019 15:00:00 10,9 3,8 - - 15 8 - - WSW 1026,1 75 60 0,0
21.03.2019 14:00:00 10,4 2,9 - - 26 14 - - W 1027,0 75 54 0,0
21.03.2019 13:00:00 10,7 4,2 - - 21 11 - - WSW 1026,4 75 42 0,0
21.03.2019 12:00:00 9,4 7,3 - - 18 10 - - S 1026,9 50 6 0,0
21.03.2019 11:00:00 9,0 7,2 - - 21 11 - - S 1026,0 75 54 0,0
21.03.2019 10:00:00 8,3 6,3 - - 15 8 - - SSW 1025,9 40 18 0,0
21.03.2019 09:00:00 7,7 5,8 6,7 6,2 15 8 - - WSW 1025,2 35 24 0,0
21.03.2019 08:00:00 5,9 5,2 - - 8 4 - - SW 1024,8 35 0 0,0
21.03.2019 07:00:00 6,1 5,2 - - 5 3 - - W 1023,8 35 0 0,0
21.03.2019 06:00:00 6,7 6,1 - - 13 7 - - WNW 1022,5 22 0 0,0
21.03.2019 05:00:00 6,8 6,2 - - 16 9 - - NW 1020,9 60 0 0,2
21.03.2019 04:00:00 7,3 6,7 - - 13 7 - - WNW 1019,6 9 0 0,4
21.03.2019 03:00:00 8,1 7,2 - - 18 10 - - W 1018,5 25 0 0,4
21.03.2019 02:00:00 8,7 7,9 - - 24 13 48 26 W 1017,5 18 0 0,4
21.03.2019 01:00:00 10,4 9,5 - - 31 17 50 27 WSW 1016,5 14 0 0,6
21.03.2019 00:00:00 10,7 9,7 - - 37 20 54 29 WSW 1016,0 14 - 0,6
20.03.2019 23:00:00 10,8 9,9 - - 37 20 57 31 WSW 1015,7 5 0 0,2
20.03.2019 22:00:00 10,7 9,8 - - 39 21 61 33 SW 1015,1 3,7 0 0,0
20.03.2019 21:00:00 10,8 9,7 - - 46 25 67 36 SW 1015,1 10 0 0,0
20.03.2019 20:00:00 10,7 9,7 - - 46 25 65 35 SW 1014,8 18 0 0,8
20.03.2019 19:00:00 10,7 9,5 - - 50 27 72 39 SW 1014,3 7 0 0,0
20.03.2019 18:00:00 10,7 9,0 - - 52 28 81 44 SW 1014,0 21 0 0,0
20.03.2019 17:00:00 10,1 9,3 - - 48 26 68 37 SSW 1014,2 18 0 0,0
20.03.2019 16:00:00 10,0 9,3 - - 46 25 74 40 SSW 1014,7 17 0 0,0
20.03.2019 15:00:00 9,9 9,1 - - 48 26 72 39 SSW 1015,4 17 0 0,2
20.03.2019 14:00:00 10,2 8,8 - - 52 28 70 38 SSW 1016,5 35 0 0,0
20.03.2019 13:00:00 9,8 7,7 - - 42 23 67 36 SSW 1017,5 21 0 0,0
20.03.2019 12:00:00 9,7 6,9 - - 37 20 52 28 SSW 1018,5 15 6 0,0
20.03.2019 11:00:00 9,7 6,8 - - 29 16 - - SSW 1019,7 14 12 0,0
20.03.2019 10:00:00 9,1 6,2 - - 29 16 - - SSW 1020,5 15 0 0,0
20.03.2019 09:00:00 8,5 5,5 6,2 6,0 22 12 - - SSW 1020,8 15 0 0,0
20.03.2019 08:00:00 7,8 4,5 - - 21 11 - - SSW 1021,2 17 0 0,0
20.03.2019 07:00:00 7,1 3,6 - - 16 9 - - SW 1020,9 23 0 0,0
20.03.2019 06:00:00 7,0 4,0 - - 16 9 - - SW 1020,7 16 0 0,0
20.03.2019 05:00:00 7,5 4,6 - - 16 9 - - WSW 1020,3 14 0 0,0
20.03.2019 04:00:00 7,5 4,1 - - 22 12 - - WSW 1019,8 17 0 0,0
20.03.2019 03:00:00 7,3 4,4 - - 24 13 - - WSW 1019,6 15 0 0,0
20.03.2019 02:00:00 7,8 4,6 - - 22 12 - - WSW 1019,7 14 0 0,0
20.03.2019 01:00:00 8,0 4,6 - - 22 12 - - WSW 1019,7 15 0 0,0
20.03.2019 00:00:00 7,9 4,6 - - 21 11 54 29 WSW 1019,4 17 - 0,0
19.03.2019 23:00:00 8,1 5,1 - - 22 12 - - WSW 1018,9 14 0 0,0
19.03.2019 22:00:00 7,9 4,4 - - 26 14 - - WSW 1018,5 16 0 0,0
19.03.2019 21:00:00 7,9 4,3 - - 28 15 - - WSW 1017,8 16 0 0,0
19.03.2019 20:00:00 8,6 4,9 - - 29 16 - - WSW 1017,1 16 0 0,0
19.03.2019 19:00:00 8,8 5,9 - - 28 15 - - WSW 1016,7 13 0 0,0
19.03.2019 18:00:00 9,1 6,4 - - 22 12 - - WSW 1016,0 15 0 0,0
19.03.2019 17:00:00 10,1 7,4 - - 28 15 46 25 WSW 1015,2 21 0 0,0
19.03.2019 16:00:00 10,2 8,0 - - 29 16 57 31 WSW 1014,8 20 0 0,0
19.03.2019 15:00:00 10,5 8,7 - - 37 20 57 31 WSW 1014,2 45 0 0,0
19.03.2019 14:00:00 10,2 9,3 - - 29 16 46 25 SW 1014,1 18 0 0,0
19.03.2019 13:00:00 10,4 9,4 - - 34 18 55 30 WSW 1013,6 8 0 0,0
19.03.2019 12:00:00 11,0 9,2 - - 41 22 55 30 SW 1013,1 80 24 0,0
19.03.2019 11:00:00 10,4 8,8 - - 41 22 59 32 SSW 1012,9 75 0 0,0
19.03.2019 10:00:00 9,4 8,3 - - 42 23 61 33 SSW 1013,1 60 0 0,0
19.03.2019 09:00:00 8,9 7,7 5,9 6,0 39 21 59 32 SSW 1013,6 75 0 0,0
19.03.2019 08:00:00 8,5 7,4 - - 37 20 52 28 SSW 1014,0 80 0 0,0
19.03.2019 07:00:00 8,0 7,1 - - 29 16 46 25 SSW 1014,7 60 0 0,0
19.03.2019 06:00:00 7,8 6,8 - - 29 16 - - SSW 1014,8 40 0 0,0
19.03.2019 05:00:00 8,0 6,4 - - 22 12 - - SSW 1015,2 30 0 0,2
19.03.2019 04:00:00 8,1 6,6 - - 18 10 - - SSW 1015,7 24 0 0,0
19.03.2019 03:00:00 7,3 6,9 - - 13 7 - - SW 1015,9 40 0 0,2
19.03.2019 02:00:00 8,1 7,6 - - 24 13 - - SSW 1016,3 1,4 0 0,2
19.03.2019 01:00:00 8,1 7,3 - - 21 11 - - SSW 1016,7 25 0 0,0
19.03.2019 00:00:00 7,8 6,9 - - 18 10 - - SSW 1017,0 25 - 0,0
18.03.2019 23:00:00 7,2 6,2 - - 13 7 - - SSW 1017,3 35 0 0,0
18.03.2019 22:00:00 6,5 5,5 - - 13 7 - - SSW 1017,2 40 0 0,0
18.03.2019 21:00:00 6,4 5,2 - - 13 7 - - SW 1016,9 35 0 0,0
18.03.2019 20:00:00 4,8 3,7 - - 11 6 - - SW 1016,6 40 0 0,0
18.03.2019 19:00:00 5,9 4,3 - - 11 6 - - WSW 1016,1 60 0 0,0
18.03.2019 18:00:00 8,7 6,2 - - 11 6 - - W 1015,6 75 12 0,0
18.03.2019 17:00:00 8,3 7,4 - - 13 7 - - S 1015,1 35 0 0,0
18.03.2019 16:00:00 8,0 6,9 - - 21 11 - - S 1014,7 55 6 0,0
18.03.2019 15:00:00 8,2 6,4 - - 22 12 - - S 1014,6 65 12 0,0
18.03.2019 14:00:00 8,4 5,7 - - 21 11 - - S 1014,4 60 42 0,0
18.03.2019 13:00:00 8,6 6,0 - - 24 13 - - S 1014,1 50 54 0,0
18.03.2019 12:00:00 7,7 5,2 - - 26 14 - - S 1013,7 70 48 0,0
18.03.2019 11:00:00 7,6 5,4 - - 24 13 - - S 1013,8 60 36 0,0
18.03.2019 10:00:00 6,8 4,9 - - 22 12 - - S 1013,2 30 30 0,0
18.03.2019 09:00:00 6,1 4,6 5,7 6,2 18 10 - - SSW 1012,6 75 6 0,0
18.03.2019 08:00:00 4,5 3,4 - - 9 5 - - SSW 1012,4 75 0 0,0
18.03.2019 07:00:00 2,6 2,0 - - 9 5 - - SW 1011,8 55 0 0,0
18.03.2019 06:00:00 1,9 1,1 - - 9 5 - - SW 1011,4 50 0 0,0
18.03.2019 05:00:00 2,2 1,2 - - 15 8 - - W 1011,6 29 0 0,0
18.03.2019 04:00:00 1,9 0,6 - - 9 5 - - SW 1011,1 40 0 0,2
18.03.2019 03:00:00 2,9 1,5 - - 11 6 - - WSW 1011,6 40 0 0,0
18.03.2019 02:00:00 3,0 1,1 - - 13 7 - - SW 1011,8 35 0 0,0
18.03.2019 01:00:00 2,4 0,9 - - 9 5 - - SW 1011,7 40 0 0,0
18.03.2019 00:00:00 1,9 0,3 - - 8 4 - - SW 1011,6 30 - 0,0
17.03.2019 23:00:00 1,8 0,1 - - 11 6 - - WSW 1011,7 30 0 0,0
17.03.2019 22:00:00 1,1 -1,1 - - 8 4 - - WSW 1011,4 35 0 0,0
17.03.2019 21:00:00 1,6 -1,7 - - 8 4 - - WNW 1010,9 30 0 0,0
17.03.2019 20:00:00 1,8 -1,5 - - 5 3 - - WNW 1010,5 35 0 0,0
17.03.2019 19:00:00 2,9 -1,0 - - 11 6 - - NNW 1009,8 40 0 0,0
17.03.2019 18:00:00 5,4 -0,2 - - 18 10 - - N 1008,8 14 6 0,0
17.03.2019 17:00:00 6,1 -0,1 - - 24 13 - - N 1007,8 14 24 0,0
17.03.2019 16:00:00 7,4 -0,2 - - 31 17 46 25 N 1006,8 21 18 0,0
17.03.2019 15:00:00 7,2 -0,9 - - 39 21 57 31 N 1005,5 20 48 0,0
17.03.2019 14:00:00 7,4 1,0 - - 41 22 63 34 N 1004,4 17 48 0,0
17.03.2019 13:00:00 7,0 1,6 - - 42 23 55 30 N 1002,9 16 42 0,0
17.03.2019 12:00:00 7,3 2,0 - - 41 22 54 29 N 1001,7 21 48 0,0
17.03.2019 11:00:00 5,1 1,9 - - 35 19 68 37 N 999,9 25 30 0,4
17.03.2019 10:00:00 6,1 3,9 - - 35 19 57 31 N 998,1 17 12 0,0
17.03.2019 09:00:00 4,9 3,2 5,7 6,2 34 18 46 25 N 996,2 29 0 0,4
17.03.2019 08:00:00 4,5 2,8 - - 31 17 48 26 N 994,1 3,8 6 0,2
17.03.2019 07:00:00 3,8 1,6 - - 24 13 - - NNW 992,2 75 0 0,2
17.03.2019 06:00:00 3,2 1,7 - - 15 8 - - WNW 990,9 65 0 0,4
17.03.2019 05:00:00 3,2 1,7 - - 16 9 - - NNW 990,1 8 0 1,2
17.03.2019 04:00:00 3,1 1,5 - - 18 10 50 27 WNW 989,0 55 0 0,8
17.03.2019 03:00:00 2,4 1,0 - - 35 19 48 26 NW 988,8 6 0 1,6
17.03.2019 02:00:00 4,1 1,9 - - 18 10 - - NW 988,7 40 0 0,2
17.03.2019 01:00:00 3,8 0,6 - - 26 14 59 32 W 988,4 50 0 0,2
17.03.2019 00:00:00 3,8 0,6 - - 24 13 - - WNW 988,2 35 - 0,0
16.03.2019 23:00:00 2,7 0,9 - - 15 8 - - WNW 987,9 45 0 0,0
16.03.2019 22:00:00 2,6 0,0 - - 18 10 - - WNW 987,7 60 0 0,0
16.03.2019 21:00:00 2,6 0,6 - - 22 12 - - WNW 987,8 40 0 0,4
16.03.2019 20:00:00 2,4 0,9 - - 29 16 46 25 NW 987,7 3,3 0 1,0
16.03.2019 19:00:00 2,7 1,3 - - 31 17 55 30 WNW 987,3 1,5 0 0,6
16.03.2019 18:00:00 2,7 1,4 - - 13 7 - - W 986,9 75 0 0,2
16.03.2019 17:00:00 2,9 1,2 - - 18 10 - - NW 987,0 14 0 0,0
16.03.2019 16:00:00 3,9 2,2 - - 8 4 - - N 987,0 35 0 0,2
16.03.2019 15:00:00 2,4 1,6 - - 18 10 - - NNW 987,4 21 0 1,0
16.03.2019 14:00:00 3,9 2,3 - - 15 8 - - SSE 987,4 75 0 0,0
16.03.2019 13:00:00 5,0 1,9 - - 11 6 - - E 987,8 60 0 0,0
16.03.2019 12:00:00 5,0 1,8 - - 4 2 - - SE 988,3 30 0 0,0
16.03.2019 11:00:00 4,9 2,1 - - 2 1 - - SSW 988,9 65 0 0,0
16.03.2019 10:00:00 3,9 1,8 - - 2 1 - - SSW 989,5 50 0 0,0
16.03.2019 09:00:00 3,1 1,3 5,9 6,2 5 3 - - SW 990,3 75 0 0,2
16.03.2019 08:00:00 2,2 1,1 - - 8 4 - - WSW 990,8 75 0 0,0
16.03.2019 07:00:00 2,0 0,7 - - 13 7 - - WSW 991,4 60 0 0,0
16.03.2019 06:00:00 2,7 0,7 - - 15 8 - - WSW 992,0 65 0 0,0

tt = Température de l'air
td = dewpoint
tt -20cm = Température de l'air -20cm
tt -100cm = Température de l'air -100cm
ff = Vitesse du vent
fx = gusts
dd = Direction du vent
ppp = reduced air pressure
vv = visibility
sd = Ensoleillement
rr = Quantités de précipitations

stations d'obs. à proximité